Ely, NV

6:06 AM PST on February 25, 2018 (GMT -0800)
Ely

Weather History for KELY - January, 2014

Change the Weather History Date:

Thursday, January 9, 2014

  Actual Average Record
Temperature  
Mean Temperature 31 °F 25 °F  
Max Temperature 41 °F 39 °F 63 °F (1990)
Min Temperature 21 °F 11 °F -16 °F (1987)
Degree Days  
Heating Degree Days 34 40  
Month to date heating degree days 317 360  
Since 1 July heating degree days 3406 3460  
Cooling Degree Days 0 0  
Month to date cooling degree days 0 0  
Year to date cooling degree days 0 0  
Moisture  
Dew Point 24 °F    
Average Humidity 76    
Maximum Humidity 92    
Minimum Humidity 59    
Precipitation  
Precipitation T in 0.02 in 0.30 in (1898)
Month to date precipitation T 0.21  
Year to date precipitation T 0.21  
Snow  
Snow 0.00 in 0.30 in 3.00 in (1898)
Month to date snowfall T 2.9  
Since 1 July snowfall 25.8 20.8  
Snow Depth 0.00 in    
Sea Level Pressure  
Sea Level Pressure 30.04 in    
Wind  
Wind Speed 6 mph (West)    
Max Wind Speed 20 mph    
Max Gust Speed 24 mph    
Visibility 10 miles    
Events Rain    
T = Trace of Precipitation, MM = Missing Value Source: NWS Daily Summary

Daily Weather History Graph

Daily Weather History Graph

Search for Another Location

Airport or City:

Trip Planner

Search our weather history database for the weather conditions in past years. The results will help you decide how hot, cold, wet, or windy it might be!

Date:

Astronomy

Jan. 09, 2014 Rise Set
Actual Time 6:59 AM PST 4:34 PM PST
Civil Twilight 6:29 AM PST 5:04 PM PST
Nautical Twilight 5:56 AM PST 5:37 PM PST
Astronomical Twilight 5:23 AM PST 6:09 PM PST
Moon 12:03 PM PST (1/9) 1:11 AM PST (1/9)
Length of Visible Light 10h 34m
Length of Day
9h 35m
Waxing Gibbous, 67% of the Moon is Illuminated
Jan 9
Waxing Gibbous
Jan 15
Full
Jan 23
Last Quarter
Jan 30
New
Feb 6
First Quarter

Hourly Weather History & Observations

Time (PST) Temp. Windchill Dew Point Humidity Pressure Visibility Wind Dir Wind Speed Gust Speed Precip Events Conditions
12:53 AM 25.0 °F 14.2 °F 19.9 °F 81% 30.04 in 10.0 mi SW 11.5 mph - N/A   Clear
1:53 AM 21.9 °F 11.7 °F 19.0 °F 89% 30.04 in 10.0 mi South 9.2 mph - N/A   Partly Cloudy
2:53 AM 21.9 °F 15.7 °F 19.0 °F 89% 30.02 in 10.0 mi South 4.6 mph - N/A   Overcast
3:53 AM 27.0 °F 23.0 °F 19.9 °F 75% 30.00 in 10.0 mi East 3.5 mph - N/A   Overcast
4:53 AM 23.0 °F 18.4 °F 19.0 °F 85% 30.02 in 10.0 mi ESE 3.5 mph - N/A   Mostly Cloudy
6:53 AM 26.1 °F 20.5 °F 21.0 °F 81% 30.05 in 10.0 mi ENE 4.6 mph - N/A   Overcast
7:53 AM 28.0 °F 22.8 °F 21.9 °F 78% 30.05 in 10.0 mi WSW 4.6 mph - N/A   Mostly Cloudy
8:53 AM 32.0 °F 28.7 °F 21.9 °F 66% 30.04 in 10.0 mi East 3.5 mph - N/A   Scattered Clouds
9:53 AM 36.0 °F - 26.1 °F 67% 30.04 in 10.0 mi North - - N/A   Overcast
10:53 AM 39.0 °F - 26.1 °F 60% 30.02 in 10.0 mi Calm Calm - N/A   Scattered Clouds
11:53 AM 37.9 °F 32.7 °F 25.0 °F 60% 30.01 in 10.0 mi West 6.9 mph - N/A   Overcast
12:53 PM 37.9 °F 31.5 °F 26.1 °F 62% 29.99 in 10.0 mi NW 9.2 mph 21.9 mph 0.00 in Rain Light Rain
1:53 PM 39.9 °F 31.4 °F 26.1 °F 58% 29.98 in 10.0 mi WNW 16.1 mph - 0.00 in   Overcast
3:53 PM 35.1 °F 29.3 °F 28.0 °F 76% 30.03 in 10.0 mi North 6.9 mph - N/A   Overcast
4:53 PM 35.1 °F 29.3 °F 27.0 °F 72% 30.07 in 10.0 mi WNW 6.9 mph - N/A   Overcast
5:53 PM 35.1 °F 27.4 °F 26.1 °F 70% 30.07 in 10.0 mi WNW 10.4 mph - N/A   Overcast
6:53 PM 32.0 °F - 25.0 °F 75% 30.08 in 10.0 mi Calm Calm - N/A   Clear
7:53 PM 33.1 °F - 25.0 °F 72% 30.07 in 10.0 mi Calm Calm - N/A   Clear
8:53 PM 33.1 °F - 25.0 °F 72% 30.08 in 10.0 mi Calm Calm - N/A   Overcast
9:53 PM 35.1 °F 27.4 °F 23.0 °F 61% 30.04 in 10.0 mi West 10.4 mph - N/A   Overcast
10:53 PM 34.0 °F 26.6 °F 25.0 °F 70% 30.04 in 10.0 mi WNW 9.2 mph - N/A   Mostly Cloudy
11:53 PM 33.1 °F - 25.0 °F 72% 30.06 in 10.0 mi Calm Calm - N/A   Mostly Cloudy